WESTFORD NEEDLES, 628

Orbit data source: Space-Track

WESTFORD NEEDLES, 628 is space debris in LEO originally from a launch on Thu, 09 May 1963 UTC launched from the Air Force Western Test Range (AFWTR). Debris objects in space refer to the collection of defunct objects orbiting the Earth. Examples of debris include non-operational satellites, rocket bodies, and fragments generated from explosions, collisions, or faulty payload assembly.

Loading next visibility...
Identifier
628, 1963-014F
Orbit
LEO
Last TLE update
1 day ago
Origin
Manufacturer
Unknown
Mission
Spacecraft
Bus & Motor
Unknown
Mass
~10 kg wet, ~10 kg dry
Launch date (UTC)
1963-05-09 (62 years ago)
Launch vehicle
Unknown
Launch site
Air Force Western Test Range (AFWTR)
Object type
Payload
Rocket body
Debris
Shape & HBR
Box, 1.5 m
Radar Cross Section
1.575 m², Medium (>0.1 m² and < 1m²)

Expand to show TLE details & history

TLE from 1 day ago
0 WESTFORD NEEDLES
1 00628U 63014F   25188.08361356  .00000003  00000-0  00000-0 0  9999
2 00628  87.3193 235.9047 0019276  96.7361 263.5686  8.63371720959170
Epoch: 2025-07-07T02:00Z
TLE epoch observation values (Epoch: 2025-07-07T02:00:24.211Z)
Latitude
-0.00006°
Longitude
-79.49422°
Altitude
3,663.236 km
Speed
6.3 km/s
True Right ascension
15h 43m 37s
True Declination
0° 00' 00"
Sunlit
Object was in daylight at epoch
Visualization orbit readout
Latitude
40.99166°
Longitude
98.0684°
Altitude
3,650.314 km
Speed
6.313 km/s
Apparent Right ascension
04h 52m 43s
Apparent Declination
12° 23' 30"
Sunlit
Object is in daylight
Visualization observer readout
Local Sidereal Time
18:58:30
Azimuth
36.08° NE
Elevation
-30.093°
Doppler factor
1
Orbital elements
Apogee altitude
3,676.019 km
Perigee altitude
3,637.332 km
Semi-major axis
10,034.812 km
Eccentricity
0.00193
Inclination
87.3193°
RAAN
235.9047°
Arg. of periapsis
96.7361°
True anomaly
Unknown
Mean anomaly
263.5686°
Eccentric anomaly
Unknown
Mean motion
2.15913 °/min
Orbital period
166.73 mins
BSTAR
0
Loading maneuver chart data...
Loading SW <> Apogee altitude chart data...

WESTFORD NEEDLES Visibility forecast

Observer location: undefined°, undefined°

Span
Click to sort rows by Start time (UTC) header in descending order
Start Az.
Max El. time (UTC)
Max El. Az.
Max El.
End time (UTC)
End Az.
25 mins2025-07-08 12:10:02.295Z13.013° NNE2025-07-08 12:23:02.295Z58.979° ENE19.09°2025-07-08 12:35:02.295Z100.893° ESE
37 mins2025-07-08 14:56:02.295Z358.934° N2025-07-08 15:14:02.295Z89.182° E44.789°2025-07-08 15:33:02.295Z178.736° S
26 mins2025-07-08 17:45:02.295Z343.183° N2025-07-08 17:57:02.295Z299.755° NW24.434°2025-07-08 18:11:02.295Z249.031° W
29 mins2025-07-09 01:23:02.295Z122.257° SE2025-07-09 01:37:02.295Z69.864° E29.475°2025-07-09 01:52:02.295Z12.873° NNE
36 mins2025-07-09 04:05:02.295Z192.653° SSW2025-07-09 04:22:02.295Z273.338° WNW43.178°2025-07-09 04:41:02.295Z359.959° N
|